Location: Unspecified
(0.0000°N, 0.0000°E)
Time: 22:44:17
(UTC+00:00)

Vanguard 2 Rocket - Pass Details

Date: 09 December 2017
Orbit: 556 x 3326 km, 32.9° (Epoch: 19 January)

Event Time Altitude Azimuth Distance (km) Brightness Sun altitude
Rises 01:43:19 0° 316° (NW) 7,306 - -54.6°
Reaches altitude 10° 01:49:36 10° 326° (NW) 6,225 - -53.5°
Maximum altitude 02:05:22 30° 21° (NNE) 4,070 - -50.4°
Exits shadow 02:08:17 29° 37° (NE) 3,958 10.0 -49.8°
Drops below altitude 10° 02:16:46 10° 77° (ENE) 4,544 10.7 -48.1°
Sets 02:20:22 0° 88° (E) 5,161 11.3 -47.4°
